Location: Newark
(48.1500°N, 13.1167°E)
Time: 11:01:46
(UTC+00:00)

XW-2D - Pass Details

Date: 12 December 2021
Orbit: 502 x 522 km, 97.5° (Epoch: 21 January)

Event Time Altitude Azimuth Distance (km) Brightness Sun altitude
Rises 17:33:42 0° 218° (SW) 2,628 ? -22.2°
Reaches altitude 10° 17:37:18 10° 255° (WSW) 1,755 ? -22.8°
Maximum altitude 17:38:24 11° 272° (W) 1,693 ? -23.0°
Drops below altitude 10° 17:39:30 10° 289° (WNW) 1,762 ? -23.2°
Sets 17:43:10 0° 326° (NNW) 2,663 ? -23.8°
